GFSFLT1_925_rhum_000.txt.gz
RH
22 25 25 24 24 22 25 26 30 30 29 31 33 34 35 32 32 35 38 39 39 34 37 47 42 37 37 39 40 43 54 76
22 26 26 26 26 24 24 26 29 28 28 27 26 27 30 34 31 34 38 34 34 35 31 33 35 38 42 40 34 33 35 49
23 25 28 30 26 25 23 23 27 26 24 24 25 26 26 26 31 38 38 38 36 33 32 31 35 31 33 37 38 34 29 36
22 24 28 30 30 28 26 24 24 25 25 25 26 28 29 28 28 29 35 42 42 43 40 38 36 38 35 36 36 37 32 29
22 23 26 30 31 31 29 24 23 24 28 24 27 23 21 21 27 28 33 40 44 44 45 46 49 44 40 36 32 36 36 34
22 22 25 27 30 33 33 27 26 24 29 32 30 30 26 28 32 37 37 39 43 44 45 50 53 52 46 48 48 40 38 38
22 24 26 26 30 35 36 31 27 28 32 35 35 32 31 31 32 34 32 33 33 38 42 46 49 50 50 50 49 50 48 44
23 22 24 26 27 32 33 32 29 29 35 37 40 41 40 37 36 32 36 32 34 34 35 37 36 38 41 42 43 44 44 41
23 23 24 25 27 29 30 28 30 29 36 41 44 42 35 34 37 34 34 35 36 38 41 38 37 38 39 38 38 36 35 40
24 23 26 28 28 29 32 31 29 32 39 44 42 42 39 34 38 39 35 37 34 32 38 42 42 45 47 48 45 44 44 46
27 26 26 28 30 29 32 38 32 36 41 42 40 40 38 36 39 39 40 41 39 39 42 44 46 47 48 49 48 46 45 46
29 28 28 30 33 35 39 37 33 37 40 44 42 37 36 40 41 41 40 42 43 44 47 49 49 49 50 51 52 52 52 50
28 31 32 32 33 33 36 36 34 37 39 44 42 39 42 43 41 43 44 46 48 51 51 50 49 47 47 49 52 52 53 53
30 33 32 29 32 34 34 36 35 38 40 40 41 44 43 43 44 44 45 49 50 48 45 44 44 45 48 51 55 57 58 58
37 39 31 29 32 32 32 34 38 40 38 37 40 44 47 48 47 47 49 51 48 43 42 44 46 50 53 56 58 60 62 66
43 39 31 28 31 31 32 33 41 42 39 38 37 48 51 48 46 49 49 45 41 41 42 44 48 54 58 58 62 65 70 75
44 38 30 27 29 30 38 41 48 44 41 38 44 50 47 45 46 47 41 37 37 40 42 46 54 59 60 70 79 85 86 86
66 38 28 26 30 42 46 50 47 44 39 42 46 47 47 45 45 39 35 37 39 41 46 55 61 64 69 78 83 92 95 91
65 39 30 34 46 46 55 45 40 42 41 46 45 46 46 45 40 35 36 39 42 48 58 64 66 70 77 84 88 95 96 94

GFSFLT1_925_rhum_006.txt.gz
RH
13 14 16 20 22 23 23 24 25 27 27 27 31 34 33 32 36 37 42 38 38 35 34 38 41 37 38 42 44 41 41 37
11 14 17 21 22 25 25 24 26 26 28 28 29 30 30 32 31 31 35 36 37 37 35 32 34 35 37 37 39 42 41 41
16 17 20 22 24 25 26 25 25 26 28 27 25 27 28 30 30 31 34 36 34 35 36 34 35 36 38 39 43 41 43 39
18 18 19 23 26 28 28 27 25 25 27 26 25 25 26 28 28 29 35 36 39 39 38 38 37 38 41 42 40 40 43 45
18 18 18 20 24 27 30 30 27 25 25 27 27 26 29 28 26 27 27 33 39 39 40 39 39 38 39 41 44 46 47 51
22 22 20 20 21 26 28 31 32 29 27 27 27 27 28 27 29 28 28 31 33 35 39 38 39 42 43 44 43 44 47 52
23 21 21 22 22 24 28 32 34 33 31 29 28 29 30 34 32 34 33 34 34 33 35 38 40 41 40 39 39 39 41 44
28 27 26 25 25 25 28 32 34 35 34 34 30 32 34 35 38 39 36 38 36 35 36 39 39 38 36 34 34 36 40 43
27 28 28 27 28 29 27 26 28 30 32 33 34 32 35 38 41 40 37 38 36 38 38 38 37 37 39 38 38 40 43 43
27 27 27 28 30 31 31 32 35 32 32 33 32 34 37 41 42 39 40 38 36 35 39 41 40 39 40 40 41 43 45 46
29 29 28 32 33 34 34 36 34 33 34 34 34 39 44 44 38 41 41 41 46 45 46 43 39 39 40 40 43 46 48 49
30 30 29 33 35 38 38 33 32 33 36 37 38 45 44 42 42 42 49 48 55 50 42 42 41 41 41 42 44 45 47 47
30 30 30 36 40 46 46 35 32 34 36 38 46 44 42 41 40 44 54 48 53 44 42 42 42 42 42 43 44 44 46 46
33 32 37 40 46 53 53 35 32 35 35 39 43 44 41 39 49 55 62 50 44 44 44 43 44 44 43 43 44 45 46 47
33 37 41 45 52 55 46 33 32 36 35 36 41 39 40 46 48 51 51 46 46 46 45 44 42 42 43 44 44 45 46 48
49 51 45 50 54 54 41 36 33 36 34 34 38 54 58 63 49 48 46 47 47 45 42 40 41 44 44 42 44 51 58 62
58 49 54 56 56 54 40 34 33 33 40 62 81 78 55 50 48 45 46 46 43 39 40 42 45 46 46 48 55 68 73 76
57 62 63 57 55 52 47 50 67 78 88 86 78 75 50 45 45 45 46 42 40 41 43 46 48 51 56 63 73 81 85 85
64 62 59 57 60 66 74 85 78 79 84 82 68 46 42 42 45 46 40 40 43 45 47 49 56 68 72 74 70 80 89 95

GFSFLT1_925_rhum_009.txt.gz
RH
16 16 17 20 22 23 23 25 24 24 29 30 31 32 32 32 44 46 42 38 37 37 40 39 37 37 39 40 38 42 41 40
22 20 20 21 23 23 24 24 25 26 27 28 28 31 32 32 33 34 42 38 36 35 33 40 38 37 39 42 41 41 40 42
24 22 21 21 23 23 24 25 25 25 26 27 27 27 28 28 30 32 38 36 38 36 35 35 34 35 35 37 42 45 44 40
22 20 22 23 23 24 25 26 26 26 25 26 27 27 27 30 30 33 34 33 33 35 36 38 37 38 38 41 42 40 45 50
24 20 20 22 23 25 26 27 29 29 27 27 26 27 29 27 24 25 28 34 33 37 38 40 41 41 41 45 52 48 47 53
25 23 24 24 22 22 26 29 30 30 31 31 29 27 26 28 28 26 30 30 35 42 43 42 41 44 45 45 42 41 40 42
28 24 24 24 25 25 24 25 26 26 30 32 33 33 30 28 30 32 32 37 39 39 40 39 40 41 38 36 32 28 27 27
27 26 28 27 28 28 29 31 32 31 31 32 34 34 34 33 29 33 37 37 36 36 36 38 41 46 46 49 45 43 30 33
31 30 33 33 31 32 33 35 35 34 35 37 38 37 38 37 34 39 43 41 38 40 40 42 46 57 61 66 65 36 35 38
31 32 34 35 36 39 39 39 39 35 33 35 34 34 44 49 46 43 38 38 40 45 50 63 66 73 66 52 44 38 39 40
40 38 36 35 38 42 44 47 45 42 33 35 37 40 47 44 42 41 40 46 52 58 68 79 76 51 51 39 39 41 44 45
41 38 38 41 44 48 52 52 52 44 34 37 39 44 45 40 43 44 49 53 60 68 65 58 56 43 39 42 43 43 44 45
42 45 44 44 48 52 55 55 54 35 37 41 45 45 43 41 42 44 51 55 55 64 55 48 41 44 45 46 46 44 44 48
56 55 52 51 50 54 57 57 45 36 37 42 44 44 42 40 45 48 52 54 59 52 47 46 47 46 45 43 41 42 44 45
60 60 58 52 55 58 58 51 38 36 37 40 42 42 43 46 53 56 55 54 52 47 47 45 46 42 40 43 46 46 49 54
64 63 61 59 61 63 55 41 40 39 37 44 64 67 65 65 64 55 51 49 45 45 46 43 39 42 45 46 52 58 65 67
63 64 62 63 63 61 54 57 62 63 73 79 78 80 81 80 75 68 57 45 47 44 40 43 44 45 51 57 65 72 75 79
68 70 66 64 64 62 66 73 77 76 82 85 88 87 87 81 73 49 45 47 41 42 44 44 46 58 60 61 65 72 82 88
76 67 65 68 70 73 79 89 96 92 94 83 76 72 72 48 44 46 44 42 43 43 44 53 58 58 63 64 76 84 89 89

GFSFLT1_925_rhum_012.txt.gz
RH
17 20 22 23 25 28 27 27 25 23 27 32 34 32 33 35 36 39 42 46 39 37 43 44 41 37 38 39 39 40 42 41
25 22 24 25 25 24 23 24 24 24 25 29 30 30 32 33 33 33 43 42 40 35 35 38 42 38 38 41 41 43 43 43
30 26 24 22 22 22 23 24 24 25 25 26 26 26 26 26 27 32 42 40 39 37 35 34 38 39 41 40 41 46 45 42
30 28 23 22 23 22 22 23 24 25 26 26 26 27 28 28 27 28 30 34 41 38 36 35 35 36 36 38 41 44 47 50
24 22 26 26 23 24 24 26 26 27 28 27 27 27 30 27 27 27 29 30 38 38 38 36 36 39 42 46 53 52 52 54
29 28 24 22 22 22 23 25 26 28 31 32 33 31 29 28 27 29 29 29 32 36 38 42 47 50 50 49 43 36 32 36
31 26 26 26 26 27 27 28 30 30 31 32 34 35 36 37 34 32 32 32 36 36 47 51 48 44 43 45 46 52 58 57
33 29 32 32 31 32 36 37 35 35 36 36 35 37 39 43 43 42 40 46 47 49 46 43 47 55 59 60 71 68 66 67
35 38 39 38 38 40 38 41 43 41 37 35 35 38 38 37 39 45 50 47 41 45 47 52 62 73 81 88 91 84 74 45
46 42 41 42 44 46 48 48 48 44 40 44 39 37 36 37 44 56 54 47 53 57 63 73 84 89 82 78 54 45 40 44
47 46 45 46 45 47 45 43 48 51 52 38 39 39 39 40 49 45 46 55 58 66 75 90 87 76 62 55 44 43 44 43
54 52 50 48 46 46 50 54 59 57 39 37 40 45 45 45 43 44 46 51 59 76 76 60 54 51 46 45 47 48 49 49
60 57 56 55 54 55 58 59 60 43 41 40 46 46 44 44 44 48 51 53 53 56 59 55 50 47 50 50 48 46 44 43
67 65 59 60 58 58 61 63 49 44 44 43 46 45 43 43 45 50 54 55 54 51 50 50 49 48 47 47 42 42 45 46
68 71 65 64 64 64 66 56 51 51 43 52 51 49 47 51 56 56 57 55 52 49 48 48 48 46 42 44 46 50 56 60
69 72 69 69 68 67 66 57 65 62 56 49 60 68 68 65 64 68 77 75 56 50 49 46 42 44 45 51 55 62 66 64
62 69 72 72 69 69 64 69 74 79 73 77 83 91 84 95 97 72 75 63 56 48 42 44 44 45 52 60 59 62 64 69
68 74 76 72 70 70 73 82 91 90 93 96 98 98 91 68 70 76 68 54 44 43 43 44 49 56 55 60 72 64 79 88
69 78 75 72 71 69 78 78 82 90 86 85 83 84 85 77 65 53 45 43 44 46 47 50 55 60 70 64 63 76 86 90

GFSFLT1_925_rhum_015.txt.gz
RH
21 21 26 25 26 32 30 31 29 33 37 34 34 34 35 33 33 34 38 44 46 43 39 46 53 48 37 38 39 39 39 41
30 24 25 25 28 30 28 27 26 30 30 30 31 29 30 30 29 28 31 34 44 48 41 36 44 43 37 36 39 40 41 44
37 32 28 26 25 26 25 24 25 24 25 25 26 26 26 28 28 28 31 29 29 41 44 38 34 39 40 38 41 43 44 47
34 31 27 25 24 23 23 23 24 25 26 27 27 28 28 28 28 28 27 27 28 35 39 40 37 35 40 39 41 44 45 49
29 29 28 24 22 23 24 24 26 27 29 30 30 30 33 29 29 29 29 29 29 36 38 42 41 37 40 41 44 49 52 58
30 28 22 22 24 24 25 27 31 34 37 38 39 40 39 39 39 39 36 34 34 33 34 40 48 43 45 50 58 55 42 39
31 30 28 28 29 32 34 33 35 36 38 40 40 41 40 44 43 46 46 47 46 42 40 56 55 56 61 52 54 59 68 73
38 39 36 37 39 40 40 42 42 41 40 40 39 41 42 44 43 44 43 50 54 54 60 64 61 62 73 86 89 92 92 92
46 48 47 47 47 45 44 44 44 43 44 45 47 44 38 38 39 42 49 64 58 61 62 71 85 86 88 90 90 91 94 97
53 51 50 48 46 44 44 47 50 51 56 51 41 42 40 38 42 43 53 63 59 66 77 91 89 88 92 90 81 72 58 55
60 56 50 47 49 50 51 54 56 61 55 45 48 46 42 42 45 45 54 59 63 71 77 79 78 81 72 65 59 53 56 53
63 60 54 55 54 56 59 59 63 63 46 51 50 43 48 50 49 49 56 60 63 68 68 72 62 62 57 59 58 55 54 50
66 62 59 59 60 62 64 66 67 50 53 53 50 46 53 53 49 50 52 53 53 56 48 50 53 55 52 53 52 50 48 44
63 66 63 64 64 67 65 66 59 58 62 59 52 51 52 50 54 55 55 56 56 51 51 54 54 54 53 50 46 45 46 49
67 71 67 66 67 69 67 67 61 68 71 71 62 54 51 52 60 64 65 68 76 74 60 54 54 48 44 45 45 48 53 61
70 72 71 69 72 70 70 66 69 71 78 85 74 71 72 77 91 98 97 94 68 66 56 48 44 43 42 45 53 62 61 60
77 68 67 74 77 71 70 70 70 78 90 89 91 97 98 98 96 78 79 75 82 56 45 43 43 46 54 58 56 68 72 68
60 66 72 77 78 76 75 71 78 78 84 89 88 87 95 94 83 89 86 66 48 45 46 48 52 54 59 70 79 72 76 80
57 58 76 86 78 73 73 76 80 82 89 93 85 86 88 77 57 52 47 48 50 49 50 55 64 67 62 59 77 88 89 89

GFSFLT1_925_rhum_021.txt.gz
RH
31 29 26 32 37 46 47 39 36 37 40 40 38 36 31 30 28 30 33 35 37 38 38 37 42 46 50 56 62 60 52 47
31 24 24 28 34 39 36 34 32 41 46 46 40 35 31 29 29 30 31 32 34 38 41 44 47 54 47 47 57 64 60 52
33 32 28 29 30 31 34 46 45 40 38 43 40 34 32 31 32 35 38 39 40 40 38 38 46 68 63 62 65 63 61 60
31 34 40 39 39 39 40 36 35 37 40 40 41 41 43 44 45 42 39 38 38 40 44 50 50 63 66 68 71 70 56 57
30 34 38 44 40 38 39 44 46 45 44 44 46 55 54 53 55 52 42 39 39 39 40 43 51 65 72 71 70 73 68 56
34 40 46 54 48 48 47 46 45 46 44 45 55 58 59 62 63 60 54 44 37 41 42 43 46 65 78 82 79 83 73 68
48 52 52 52 46 44 42 43 44 50 49 56 58 51 54 59 56 53 48 51 50 45 46 47 53 65 77 86 84 85 81 76
50 50 49 52 54 50 52 51 58 53 46 39 43 50 54 61 59 55 56 57 64 60 58 66 82 92 94 94 97 99 98 99
51 52 55 55 58 58 61 62 51 41 41 45 51 53 60 61 60 59 62 68 73 66 79 89 92 89 95 96 98 99 99 99
49 50 54 58 57 59 55 54 49 46 49 51 52 59 59 63 65 63 68 68 74 91 96 86 75 74 77 80 87 97 99 98
45 48 54 59 62 60 57 61 62 58 60 58 62 68 70 71 67 65 70 81 97 86 88 92 86 86 86 79 89 96 100 100
51 55 58 63 66 65 66 70 74 73 77 66 70 71 71 70 65 65 79 92 94 95 83 83 90 98 94 77 71 85 82 78
57 60 65 65 60 53 58 71 78 78 68 70 74 65 66 62 70 79 89 83 93 98 100 99 99 95 86 75 66 66 64 58
58 61 59 53 49 55 68 79 83 79 77 79 84 83 69 77 94 95 99 99 98 99 97 90 84 80 62 48 50 54 55 56
62 58 54 49 51 68 79 80 81 79 80 84 90 81 89 94 100 99 99 96 92 86 91 76 56 49 52 56 58 61 63 64
64 53 48 57 73 71 67 73 78 83 88 89 92 94 98 89 96 95 92 92 95 100 100 75 51 50 57 66 66 69 69 66
57 54 67 68 61 67 78 81 88 92 83 89 97 100 100 100 92 93 93 100 95 72 56 53 61 61 60 59 68 68 68 72
61 68 64 66 73 83 87 90 91 82 86 90 86 77 83 85 79 60 55 59 61 61 62 66 68 74 63 76 81 74 77 77
69 66 67 74 79 85 94 92 81 77 72 77 67 65 62 61 58 61 62 62 63 65 67 72 72 68 61 67 86 82 84 82

GFSFLT1_925_rhum_024.txt.gz
RH
33 34 33 33 38 46 49 52 54 56 55 55 49 48 44 45 40 40 45 45 52 56 53 54 58 56 52 52 55 53 52 46
25 30 30 31 40 45 50 48 53 52 49 45 39 37 35 35 35 40 51 50 53 55 52 52 53 56 58 57 54 57 58 52
26 32 37 39 42 45 44 44 43 40 36 40 43 44 39 44 46 47 46 50 50 50 52 53 53 54 55 60 63 61 57 53
24 30 36 39 43 41 39 42 45 49 46 42 42 40 39 38 41 41 45 50 49 49 50 53 56 57 54 55 58 59 60 57
26 31 38 44 48 47 46 46 45 49 53 46 50 45 43 48 49 48 50 46 47 48 52 54 57 56 55 56 55 59 60 58
32 36 41 45 50 51 50 46 48 51 53 56 53 51 48 49 51 50 47 42 43 43 51 59 61 60 57 64 67 68 66 63
36 38 38 41 47 50 49 47 46 52 56 59 60 58 54 50 46 43 38 39 38 41 49 64 68 71 71 73 77 77 76 75
35 36 38 43 46 49 47 47 44 46 49 49 50 48 47 45 45 44 48 44 44 49 62 68 71 79 81 87 93 97 99 99
36 37 41 44 48 51 52 49 46 45 44 45 47 49 50 52 52 55 53 52 54 65 75 79 80 82 85 92 97 98 98 98
35 37 41 44 47 51 54 48 45 45 46 50 55 56 62 62 59 58 52 58 62 73 84 79 84 93 90 92 98 98 100 98
38 39 43 46 48 49 53 49 49 52 54 60 60 65 64 64 61 57 62 68 75 82 89 87 93 99 98 99 99 100 95 92
40 43 46 48 47 46 44 50 54 56 60 62 66 69 68 62 58 61 71 80 89 88 97 98 98 98 98 99 96 87 79 73
39 43 44 41 42 41 48 55 56 55 55 58 63 66 67 60 65 70 74 80 98 98 98 99 92 81 86 84 68 62 57 53
38 41 42 41 40 47 50 45 44 47 52 56 58 62 64 68 76 85 93 94 94 92 82 73 66 62 58 56 53 54 54 52
42 44 42 40 47 45 38 41 50 56 61 59 57 68 76 84 86 89 81 73 70 72 74 81 84 71 60 54 54 54 54 52
47 46 39 45 40 39 43 54 58 62 60 56 62 82 97 98 98 91 87 73 68 69 68 59 57 56 47 63 59 55 51 49
52 46 45 44 42 45 53 57 62 63 59 57 70 78 78 78 77 68 57 52 49 50 51 53 54 52 59 63 71 59 54 54
47 44 48 45 48 49 55 62 60 61 60 58 58 58 57 55 51 49 50 52 50 50 52 54 56 57 60 67 80 65 62 61
44 50 47 48 47 45 54 55 60 61 58 60 56 57 53 52 52 54 53 49 51 52 54 56 58 56 65 80 84 72 66 64

GFSFLT1_925_rhum_027.txt.gz
RH
22 29 26 27 31 38 42 44 48 50 48 45 39 38 37 36 34 34 40 44 46 50 50 51 51 49 48 48 51 50 50 50
26 30 30 29 36 35 42 45 51 48 42 39 34 33 33 33 33 40 48 48 50 51 49 47 47 47 47 51 53 55 57 53
26 30 34 36 37 37 38 39 40 38 33 37 41 42 38 40 41 43 42 46 50 48 47 46 44 46 47 50 53 56 56 55
25 31 37 39 39 37 38 40 41 44 41 37 37 35 35 35 36 42 44 50 49 47 46 47 50 50 47 47 48 50 52 51
26 31 36 41 43 42 40 40 40 43 48 42 48 45 43 42 47 47 48 47 43 41 39 41 48 55 53 52 47 52 54 53
29 31 36 42 46 46 44 40 41 45 49 52 53 50 47 43 42 42 42 36 38 37 38 42 48 58 57 61 62 61 60 59
30 32 33 36 43 45 44 42 40 41 45 47 48 48 46 41 40 41 38 43 41 41 43 50 58 59 60 64 77 84 88 85
30 31 33 37 40 43 45 41 41 40 42 43 44 45 44 42 44 45 52 48 44 41 49 58 59 66 74 82 83 88 91 97
29 31 34 36 38 41 46 45 40 38 40 43 45 47 47 51 53 57 54 49 48 51 58 73 80 88 92 93 96 94 98 97
29 31 34 37 37 38 42 45 42 42 44 46 51 55 54 55 56 56 52 53 54 64 85 90 89 89 92 94 97 98 100 92
32 32 34 38 39 39 41 40 41 44 48 52 50 51 50 52 54 52 52 58 83 88 92 89 87 82 79 92 98 97 97 98
31 32 35 37 36 37 37 42 45 43 40 39 41 45 48 50 50 52 59 69 78 83 88 98 89 85 78 80 80 77 75 70
31 33 35 37 36 36 39 40 33 32 33 35 41 46 47 49 57 71 69 71 75 79 89 88 75 71 59 57 59 53 52 52
31 34 38 38 36 38 36 30 33 38 41 44 44 46 57 66 71 75 72 76 78 81 84 84 68 57 54 54 51 47 45 43
34 36 38 38 37 35 32 32 38 44 46 46 45 55 70 75 93 92 96 84 81 79 69 56 48 44 43 42 42 50 49 45
39 42 41 37 36 34 34 36 40 45 47 45 46 65 69 79 84 79 71 66 49 46 43 42 41 42 40 53 57 58 53 48
47 42 41 40 34 37 36 36 42 46 45 44 48 56 55 56 58 54 50 49 49 43 41 41 42 42 53 58 62 63 57 55
46 46 46 42 37 38 34 36 37 41 45 43 49 52 54 55 53 52 50 47 40 41 42 42 44 45 58 60 66 70 64 61
51 54 45 36 39 40 34 35 34 36 37 43 46 56 58 53 46 45 42 40 42 42 43 46 48 49 61 72 81 75 67 64

GFSFLT1_925_rhum_030.txt.gz
RH
24 28 29 32 35 38 40 42 48 50 51 46 43 38 39 37 36 37 42 43 49 52 51 51 51 51 51 51 52 54 57 58
33 35 35 36 36 41 46 50 53 49 45 41 38 38 36 35 34 40 45 44 48 50 50 50 48 48 49 50 52 54 57 58
33 37 38 36 36 36 37 41 42 40 38 38 38 39 40 40 40 42 42 45 50 51 49 49 50 49 52 53 53 57 58 56
34 38 41 40 40 37 38 39 42 46 41 39 41 40 39 38 44 45 47 49 49 46 42 40 42 48 55 58 57 57 64 61
31 36 42 45 45 42 40 40 41 45 48 49 51 52 50 48 44 44 44 43 41 40 41 42 48 52 58 60 62 64 68 72
32 35 40 45 47 46 44 40 39 42 46 49 50 50 51 47 43 42 43 46 47 46 44 44 51 56 58 68 75 80 82 86
30 31 33 41 42 44 45 41 41 40 42 44 44 46 47 46 46 48 53 55 52 49 48 51 59 72 78 79 77 80 85 83
31 30 32 35 38 41 43 44 43 39 40 43 45 47 51 51 53 56 60 58 54 54 59 72 75 74 76 78 81 86 89 89
29 30 32 36 36 37 40 43 43 41 42 46 53 56 56 55 55 58 58 55 54 71 76 77 79 83 85 83 85 87 97 100
30 31 32 35 37 38 40 42 40 40 44 48 48 48 50 51 52 54 52 54 66 80 78 87 88 80 76 76 83 99 99 98
30 31 32 34 36 36 38 38 41 43 40 36 36 38 43 46 48 51 60 64 74 76 67 82 87 91 86 78 74 80 83 84
31 30 33 36 38 37 36 39 40 33 34 35 38 43 45 48 56 66 69 67 68 74 72 78 81 82 74 75 73 71 71 68
30 32 37 39 38 37 37 36 30 34 36 40 43 45 47 57 61 66 72 73 67 74 81 86 85 71 64 56 55 56 52 55
32 34 37 41 39 37 36 33 32 35 39 42 44 45 58 70 77 80 78 76 73 82 68 70 71 62 49 44 42 45 52 52
37 39 41 41 39 38 36 34 34 37 40 43 44 53 63 71 74 80 77 75 77 66 56 49 45 43 42 45 48 55 59 58
49 46 42 41 42 40 35 36 34 37 40 44 43 52 57 60 58 61 58 55 52 52 49 42 42 42 47 49 54 61 63 63
53 44 44 46 46 40 36 36 34 35 37 41 42 46 53 54 57 56 54 52 53 43 42 43 44 47 53 56 60 66 72 72
52 50 50 50 47 36 38 38 34 35 34 35 37 44 55 57 57 53 50 48 42 43 44 45 51 58 62 70 77 78 78 75
53 51 51 49 37 36 36 37 35 36 34 32 34 45 46 53 55 47 45 42 43 44 44 57 63 63 70 76 80 77 70 78

GFSFLT1_925_rhum_033.txt.gz
RH
44 42 42 45 45 47 56 63 64 59 54 49 48 47 46 43 45 41 42 43 46 49 49 49 50 50 49 51 51 50 52 54
45 42 40 43 45 44 45 41 45 42 39 40 38 38 37 37 42 42 42 45 50 50 51 50 48 48 47 46 53 56 52 50
50 46 43 42 41 42 42 41 41 40 40 42 44 44 42 42 49 49 49 49 47 46 44 42 45 49 52 59 58 56 59 69
50 50 45 41 41 40 41 42 41 38 43 44 42 41 46 49 46 44 43 44 44 44 44 44 45 48 53 54 58 70 80 80
49 52 49 46 45 42 41 41 41 42 43 44 46 51 52 49 46 44 45 47 50 49 47 47 47 54 55 65 81 79 77 84
52 49 47 47 47 45 43 43 44 43 44 46 47 49 48 47 47 50 54 55 56 53 51 49 52 70 77 75 74 77 78 79
44 44 46 46 46 45 45 44 44 41 43 46 49 50 53 53 54 58 60 59 56 54 56 63 73 73 70 70 77 79 83 84
43 41 45 45 43 43 44 44 43 41 42 48 53 54 54 55 56 60 57 55 58 64 66 68 64 70 82 83 81 78 82 86
41 40 40 38 38 38 39 41 42 44 47 44 43 42 44 51 51 50 53 57 60 67 67 63 64 81 81 77 75 82 85 84
42 39 36 36 37 40 41 40 43 42 36 34 34 37 41 43 50 59 60 62 64 64 70 79 75 74 79 80 76 71 78 80
39 38 38 40 39 38 38 40 39 34 34 35 37 41 43 52 56 61 64 66 68 73 72 77 72 69 81 80 79 74 74 77
40 40 42 40 39 38 41 34 32 33 35 37 41 43 47 53 60 65 69 65 73 64 68 77 72 70 66 69 67 61 61 59
44 41 41 42 40 39 34 33 32 34 36 40 42 43 51 55 60 63 70 63 66 78 69 70 64 64 60 56 50 49 53 52
50 50 47 42 41 39 36 34 34 35 36 40 42 45 56 58 61 62 59 65 67 67 67 60 51 43 43 45 49 55 58 56
60 56 49 47 46 44 39 36 36 34 37 36 39 47 54 56 61 56 60 61 56 56 52 49 43 44 48 49 50 53 56 60
58 56 52 50 50 48 46 38 37 36 34 34 36 43 52 54 55 56 58 57 54 54 45 43 45 51 54 54 60 70 73 73
58 54 53 53 52 49 42 36 36 37 36 35 34 34 51 56 55 55 55 55 51 44 43 46 52 56 63 66 70 75 71 69
62 60 55 52 49 48 48 37 39 43 48 40 41 44 50 56 55 59 57 51 44 43 44 53 54 62 67 64 70 80 84 74
65 58 53 46 46 46 31 31 32 37 38 42 48 52 60 67 81 56 52 45 42 43 53 60 65 66 64 68 80 81 86 88

GFSFLT1_925_rhum_036.txt.gz
RH
56 57 59 58 64 71 78 76 79 75 67 58 52 49 40 44 46 47 46 47 52 54 53 52 50 48 46 46 51 52 53 52
57 54 51 52 49 49 64 66 61 65 56 47 43 44 50 51 52 52 53 50 50 50 46 43 44 46 52 55 53 52 48 61
59 54 49 50 51 47 43 41 42 45 46 48 49 50 50 47 45 44 44 44 44 44 43 44 45 45 45 46 50 58 71 79
62 58 51 47 46 44 42 42 41 41 41 41 41 41 44 47 48 48 50 48 48 48 49 50 49 46 47 54 64 75 82 77
58 55 50 44 43 43 44 44 46 47 48 47 47 48 50 50 49 53 55 55 56 56 56 54 51 60 72 76 73 69 75 82
62 55 48 44 43 43 45 43 44 45 46 48 49 49 51 52 53 55 56 57 58 57 54 52 52 65 69 70 74 79 81 82
57 50 48 48 48 47 47 44 43 42 42 43 48 54 56 56 56 58 58 57 56 56 58 63 64 62 70 87 90 89 90 92
60 58 55 54 50 47 45 44 44 46 47 50 49 50 50 52 56 54 55 55 59 66 72 66 62 63 71 76 75 76 78 80
52 52 52 46 42 40 44 46 49 48 42 39 36 38 40 42 46 53 61 66 70 68 67 70 70 68 63 73 74 75 75 76
48 49 45 44 44 45 44 46 42 37 35 36 37 40 42 48 56 59 62 65 66 70 75 80 80 75 68 76 76 74 78 76
48 47 47 45 44 44 45 41 37 35 35 36 39 43 46 50 56 60 65 65 70 73 70 68 76 75 70 69 72 74 66 63
53 53 47 44 44 40 36 34 33 33 34 36 40 43 44 47 52 60 55 49 52 56 71 76 68 61 61 59 57 55 54 60
54 50 45 44 44 37 36 34 34 34 35 37 39 40 42 47 50 55 49 43 51 59 63 64 55 51 46 48 49 58 59 59
62 54 50 49 48 48 41 38 36 36 36 35 35 36 41 49 57 57 50 54 58 59 57 54 55 48 48 51 51 53 55 60
62 59 56 52 51 50 49 46 38 37 37 36 35 35 38 53 58 57 54 60 61 57 56 46 45 46 49 51 54 61 64 66
63 62 56 53 52 49 46 47 40 40 39 41 38 41 41 53 57 58 61 64 59 58 50 44 44 49 52 60 61 58 64 70
65 61 58 51 48 52 54 37 34 32 39 41 48 46 47 49 58 62 70 65 83 51 44 44 50 56 64 65 62 68 79 83
69 64 58 56 56 40 30 30 29 28 32 45 47 49 52 61 64 69 92 100 80 44 48 55 61 67 69 70 76 82 88 91
68 62 57 33 30 28 28 27 28 33 48 61 63 63 62 69 81 98 90 87 77 56 58 67 67 63 64 76 81 86 90 88

GFSFLT1_925_rhum_039.txt.gz
RH
67 70 70 70 69 71 73 72 76 80 76 58 48 46 52 52 53 55 56 56 55 54 52 49 47 46 46 46 46 44 44 52
68 66 70 76 79 83 83 79 82 77 61 47 50 53 54 50 47 47 47 47 46 46 44 44 43 44 45 44 43 42 45 60
70 65 60 55 56 52 50 50 48 48 47 47 51 50 49 47 47 46 45 44 44 44 45 48 51 50 45 49 63 73 77 80
73 71 60 52 47 44 44 43 43 43 43 42 43 47 50 48 48 48 49 50 51 53 55 56 53 47 58 70 73 69 71 69
67 63 55 48 48 46 46 44 44 43 42 41 40 40 46 51 52 55 57 58 58 58 57 55 53 54 57 59 61 66 77 82
63 56 50 50 48 45 45 45 45 46 46 45 45 48 50 53 56 59 62 61 58 57 57 60 62 62 58 63 80 89 90 90
58 54 50 50 52 46 45 44 46 47 47 50 51 54 56 56 56 59 57 57 59 62 68 65 61 61 64 73 79 79 82 92
66 61 57 54 53 52 47 46 49 51 48 48 48 47 47 48 47 46 52 59 64 66 61 62 67 67 63 64 66 70 70 74
59 57 58 58 55 52 50 51 53 47 43 39 38 37 36 37 41 49 57 59 60 58 58 65 67 71 69 64 74 76 81 82
48 56 52 49 50 50 49 47 42 39 38 37 37 38 38 40 45 54 56 59 60 61 69 75 73 80 80 84 78 74 71 67
58 57 51 48 46 46 47 41 39 36 35 35 37 39 41 44 45 48 54 60 53 54 68 74 79 79 69 70 64 58 59 59
62 53 48 45 46 41 38 36 35 34 34 36 37 37 39 44 46 51 60 59 47 50 55 66 71 62 54 48 50 52 51 56
56 53 50 49 47 40 39 37 36 36 36 36 37 38 42 42 47 52 58 58 53 56 62 66 66 57 54 46 48 57 58 56
63 57 56 54 52 52 51 50 47 37 38 39 39 38 40 40 43 53 65 63 57 63 66 71 60 49 45 49 52 53 58 62
62 59 57 53 51 52 54 52 49 47 45 44 45 46 47 48 48 55 62 65 65 71 75 67 57 48 49 51 56 61 59 61
62 62 59 55 53 55 40 30 29 28 27 31 39 42 40 38 42 51 64 68 76 80 93 92 55 51 54 60 62 62 66 74
66 64 60 58 54 39 30 29 26 26 29 43 43 40 42 48 49 58 69 78 89 98 97 64 79 63 64 65 69 81 83 88
70 67 64 50 38 30 28 27 27 30 40 50 56 54 57 54 55 71 82 82 75 84 78 88 71 67 69 77 82 86 92 96
68 62 40 34 27 28 29 31 32 38 48 55 53 55 55 59 79 92 94 96 94 89 80 73 68 64 72 83 87 90 88 83